Tiempo cada hora Czyzewka

Hoy, 22 Junio, Martes

Tiempo Temperatura Precipitaciones Viento Presión Humedad
00:00 +20°C° 0 mm 2 mps 747 mmHg 95%
01:00 +21°C° 0 mm 1 mps 747 mmHg 95%
02:00 +20°C° 0 mm 2 mps 748 mmHg 96%
03:00 +19°C° 0 mm 3 mps 748 mmHg 97%
04:00 +19°C° 0 mm 3 mps 748 mmHg 98%
05:00 +19°C° 0 mm 4 mps 749 mmHg 96%
06:00 +19°C° 0 mm 4 mps 750 mmHg 94%
07:00 +19°C° 0 mm 4 mps 750 mmHg 92%
08:00 +19°C° 0 mm 4 mps 750 mmHg 89%
09:00 +20°C° 0 mm 4 mps 751 mmHg 86%
10:00 +20°C° 0 mm 4 mps 751 mmHg 82%
11:00 +20°C° 0.2 mm 4 mps 752 mmHg 83%
12:00 +19°C° 0.2 mm 4 mps 752 mmHg 83%
13:00 +19°C° 0.2 mm 4 mps 752 mmHg 83%
14:00 +19°C° 0 mm 3 mps 752 mmHg 85%
15:00 +18°C° 0 mm 3 mps 753 mmHg 86%
16:00 +18°C° 0 mm 3 mps 753 mmHg 88%
17:00 +17°C° 0 mm 3 mps 753 mmHg 87%
18:00 +17°C° 0 mm 3 mps 753 mmHg 87%
19:00 +16°C° 0 mm 2 mps 753 mmHg 87%
20:00 +15°C° 0 mm 2 mps 754 mmHg 88%
21:00 +14°C° 0 mm 2 mps 754 mmHg 89%
22:00 +14°C° 0 mm 2 mps 754 mmHg 90%
23:00 +13°C° 0 mm 2 mps 755 mmHg 90%

Mañana, 23 Junio, Miércoles

Tiempo Temperatura Precipitaciones Viento Presión Humedad
00:00 +13°C° 0 mm 1 mps 755 mmHg 89%
01:00 +13°C° 0 mm 1 mps 755 mmHg 88%
02:00 +12°C° 0 mm 2 mps 755 mmHg 89%
03:00 +12°C° 0 mm 2 mps 755 mmHg 90%
04:00 +12°C° 0 mm 2 mps 755 mmHg 91%
05:00 +13°C° 0 mm 2 mps 755 mmHg 86%
06:00 +14°C° 0 mm 3 mps 756 mmHg 80%
07:00 +17°C° 0 mm 3 mps 756 mmHg 74%
08:00 +18°C° 0 mm 3 mps 756 mmHg 67%
09:00 +19°C° 0 mm 3 mps 756 mmHg 60%
10:00 +21°C° 0 mm 2 mps 756 mmHg 53%
11:00 +23°C° 0 mm 2 mps 756 mmHg 50%
12:00 +24°C° 0 mm 2 mps 756 mmHg 46%
13:00 +25°C° 0 mm 2 mps 756 mmHg 43%
14:00 +25°C° 0 mm 2 mps 756 mmHg 43%
15:00 +25°C° 0 mm 2 mps 756 mmHg 43%
16:00 +25°C° 0 mm 2 mps 756 mmHg 44%
17:00 +24°C° 0 mm 3 mps 756 mmHg 51%
18:00 +22°C° 0 mm 3 mps 756 mmHg 59%
19:00 +21°C° 0 mm 3 mps 756 mmHg 66%
20:00 +19°C° 0 mm 3 mps 756 mmHg 74%
21:00 +17°C° 0 mm 2 mps 756 mmHg 82%
22:00 +16°C° 0 mm 2 mps 757 mmHg 90%
23:00 +15°C° 0 mm 2 mps 757 mmHg 92%

Pasado mañana, 24 Junio, Jueves

Tiempo Temperatura Precipitaciones Viento Presión Humedad
00:00 +15°C° 0 mm 2 mps 757 mmHg 93%
01:00 +14°C° 0 mm 2 mps 757 mmHg 94%
02:00 +14°C° 0 mm 2 mps 757 mmHg 95%
03:00 +14°C° 0 mm 2 mps 756 mmHg 95%
04:00 +14°C° 0 mm 1 mps 756 mmHg 95%
05:00 +15°C° 0 mm 2 mps 756 mmHg 87%
06:00 +17°C° 0 mm 2 mps 756 mmHg 80%
07:00 +19°C° 0 mm 2 mps 756 mmHg 73%
08:00 +20°C° 0 mm 2 mps 756 mmHg 67%
09:00 +23°C° 0 mm 2 mps 756 mmHg 60%
10:00 +24°C° 0 mm 1 mps 756 mmHg 54%
11:00 +25°C° 0 mm 1 mps 756 mmHg 51%
12:00 +26°C° 0 mm 1 mps 755 mmHg 48%
13:00 +27°C° 0 mm 1 mps 755 mmHg 45%
14:00 +27°C° 0 mm 2 mps 755 mmHg 46%
15:00 +27°C° 0 mm 2 mps 755 mmHg 47%
16:00 +26°C° 0 mm 3 mps 754 mmHg 48%
17:00 +25°C° 0 mm 3 mps 754 mmHg 56%
18:00 +22°C° 0 mm 4 mps 754 mmHg 63%
19:00 +20°C° 0 mm 5 mps 754 mmHg 71%
20:00 +19°C° 0 mm 4 mps 754 mmHg 74%
21:00 +18°C° 0 mm 4 mps 754 mmHg 77%
22:00 +17°C° 0 mm 3 mps 754 mmHg 79%
23:00 +17°C° 0 mm 3 mps 754 mmHg 79%

25 Junio, Viernes

Tiempo Temperatura Precipitaciones Viento Presión Humedad
00:00 +17°C° 0 mm 3 mps 754 mmHg 79%
01:00 +17°C° 0 mm 3 mps 753 mmHg 78%
02:00 +17°C° 0.1 mm 4 mps 753 mmHg 79%
03:00 +17°C° 0.1 mm 4 mps 753 mmHg 80%
04:00 +15°C° 0.1 mm 4 mps 752 mmHg 81%
05:00 +16°C° 0.4 mm 3 mps 753 mmHg 83%
06:00 +16°C° 0.4 mm 3 mps 753 mmHg 85%
07:00 +17°C° 0.4 mm 3 mps 753 mmHg 87%
08:00 +17°C° 0.4 mm 3 mps 753 mmHg 84%
09:00 +17°C° 0.4 mm 3 mps 753 mmHg 82%
10:00 +18°C° 0.4 mm 3 mps 753 mmHg 80%
11:00 +18°C° 0.4 mm 3 mps 753 mmHg 80%
12:00 +18°C° 0.4 mm 3 mps 754 mmHg 81%
13:00 +18°C° 0.4 mm 3 mps 754 mmHg 82%
14:00 +18°C° 0.1 mm 3 mps 754 mmHg 80%
15:00 +18°C° 0.1 mm 4 mps 754 mmHg 78%
16:00 +19°C° 0.1 mm 4 mps 754 mmHg 76%
17:00 +18°C° 0 mm 3 mps 754 mmHg 78%
18:00 +18°C° 0 mm 3 mps 754 mmHg 80%
19:00 +17°C° 0 mm 2 mps 754 mmHg 82%
20:00 +17°C° 0 mm 2 mps 754 mmHg 84%
21:00 +16°C° 0 mm 2 mps 754 mmHg 85%
22:00 +15°C° 0 mm 2 mps 755 mmHg 87%
23:00 +15°C° 0 mm 2 mps 755 mmHg 89%

26 Junio, Sábado

Tiempo Temperatura Precipitaciones Viento Presión Humedad
00:00 +14°C° 0 mm 2 mps 755 mmHg 91%
01:00 +13°C° 0 mm 3 mps 755 mmHg 93%
02:00 +12°C° 0 mm 3 mps 755 mmHg 94%
03:00 +12°C° 0 mm 3 mps 755 mmHg 95%
04:00 +13°C° 0 mm 2 mps 754 mmHg 97%
05:00 +14°C° 0 mm 3 mps 755 mmHg 91%
06:00 +16°C° 0 mm 3 mps 755 mmHg 86%
07:00 +18°C° 0 mm 4 mps 755 mmHg 80%
08:00 +19°C° 0.2 mm 4 mps 755 mmHg 77%
09:00 +20°C° 0.2 mm 4 mps 755 mmHg 74%
10:00 +21°C° 0.2 mm 5 mps 755 mmHg 71%
11:00 +21°C° 0.4 mm 5 mps 755 mmHg 70%
12:00 +21°C° 0.4 mm 4 mps 755 mmHg 69%
13:00 +21°C° 0.4 mm 4 mps 755 mmHg 68%
14:00 +22°C° 0.2 mm 4 mps 755 mmHg 67%
15:00 +22°C° 0.2 mm 4 mps 755 mmHg 65%
16:00 +22°C° 0.2 mm 3 mps 755 mmHg 64%
17:00 +22°C° 0 mm 3 mps 755 mmHg 68%
18:00 +21°C° 0 mm 2 mps 755 mmHg 71%
19:00 +20°C° 0 mm 2 mps 755 mmHg 75%
20:00 +19°C° 0 mm 2 mps 755 mmHg 80%
21:00 +18°C° 0 mm 1 mps 755 mmHg 85%
22:00 +16°C° 0 mm 1 mps 755 mmHg 90%
23:00 +15°C° 0 mm 1 mps 755 mmHg 90%

27 Junio, Domingo

Tiempo Temperatura Precipitaciones Viento Presión Humedad
00:00 +15°C° 0 mm 1 mps 755 mmHg 91%
01:00 +15°C° 0 mm 1 mps 756 mmHg 91%
02:00 +14°C° 0 mm 1 mps 755 mmHg 92%
03:00 +14°C° 0 mm 1 mps 755 mmHg 92%
04:00 +14°C° 0 mm 1 mps 755 mmHg 93%
05:00 +16°C° 0 mm 1 mps 755 mmHg 86%
06:00 +19°C° 0 mm 1 mps 755 mmHg 79%
07:00 +21°C° 0 mm 1 mps 755 mmHg 72%
08:00 +23°C° 0 mm 1 mps 755 mmHg 64%
09:00 +24°C° 0 mm 1 mps 755 mmHg 55%
10:00 +26°C° 0 mm 1 mps 755 mmHg 47%
11:00 +27°C° 0 mm 1 mps 755 mmHg 44%
12:00 +28°C° 0 mm 1 mps 755 mmHg 41%
13:00 +28°C° 0 mm 1 mps 754 mmHg 38%
14:00 +29°C° 0 mm 2 mps 754 mmHg 38%
15:00 +29°C° 0 mm 2 mps 754 mmHg 37%
16:00 +29°C° 0 mm 2 mps 754 mmHg 37%
17:00 +28°C° 0 mm 2 mps 754 mmHg 44%
18:00 +27°C° 0 mm 2 mps 754 mmHg 51%
19:00 +26°C° 0 mm 2 mps 754 mmHg 59%
20:00 +24°C° 0 mm 3 mps 754 mmHg 63%
21:00 +22°C° 0 mm 3 mps 754 mmHg 67%
22:00 +21°C° 0 mm 3 mps 754 mmHg 71%
23:00 +20°C° 0 mm 3 mps 754 mmHg 72%
Mostrar más

Necesitamos Su Consentimiento

Meteoprog y nuestros Proveedores de Servicios pueden almacenar y acceder a sus datos personales como cookies, identificadores de dispositivo u otras tecnologías similares de su dispositivo y procesar dichos datos para personalizar contenido y anuncios, además de ofrecer funciones de redes sociales y analizar el tráfico.

  • Almacenar y/o acceder a información en su dispositivo

    Se puede almacenar o acceder a cookies, identificadores de dispositivo u otra información de su dispositivo para los fines anteriormente indicados.

  • Anuncios y contenido personalizados, medición de anuncios y contenido, percepciones del público, y desarrollo de productos

    Los anuncios y el contenido pueden personalizarse en base a su perfil. Se pueden añadir más datos para personalizar mejor los anuncios y contenidos. Se puede medir el rendimiento de los anuncios y contenidos. Se puede obtener la percepción sobre el público que ha visto los anuncios y contenidos. Dichos datos pueden usarse para desarrollar o mejorar la experiencia del usuario, sistemas y software.

Al hacer clic en ‘Estoy De Acuerdo’ usted permitirá el uso de las cookies, identificadores de dispositivo, balizas web u otras tecnologías similares indicadas. Su configuración puede cambiarse desde el navegador de su dispositivo.

Para ciertos fines, los intereses legítimos pueden ser considerados por encima del consentimiento. Puede leer más sobre ello en nuestra Política de Privacidad y Cookies.